Location: Hertford
(51.8000°N, 0.0667°W)
Time: 04:34:49
(UTC+00:00)

Cosmos 909 Rocket - Pass Details

Date: 18 September 2020
Orbit: 991 x 2088 km, 65.9° (Epoch: 20 October)

Event Time Altitude Azimuth Distance (km) Brightness Sun altitude
Rises 21:37:36 0° 319° (NW) 3,996 8.4 -29.5°
Reaches altitude 10° 21:40:24 10° 319° (NW) 2,934 7.4 -29.8°
Enters shadow 21:46:58 87° 338° (NNW) 1,011 3.9 -30.4°
